Regional Weather Roundup
Issued by NWS Goodland, KS

Home | Current Version | Previous Version | Graphics & Text | Print | Product List | Glossary On
Versions: 1 2 3 4 5 6 7 8 9 10 11 12 13 14 15 16 17 18 19 20 21 22 23 24 25 26 27 28 29 30 31 32 33 34 35 36 37 38 39 40 41 42 43 44 45 46 47 48 49 50
726
ASUS43 KGLD 110059
RWRGLD

GOODLAND FORECAST AREA HOURLY WEATHER ROUNDUP
NATIONAL WEATHER SERVICE GOODLAND KS
600 PM MST SUN DEC 10 2017

...OFFICIAL OBSERVATIONS...

CITY           SKY/WX    TMP DP  RH WIND       PRES   REMARKS
GOODLAND KS    CLOUDY    37   3  24 W7        30.26F
HILL CITY KS   CLEAR     47  15  27 W8        30.22F
IMPERIAL NEB   CLOUDY    44   4  19 W6        30.23F
MCCOOK NEB     CLEAR     48   9  20 W8        30.20F
AKRON CO       CLOUDY    39  -5  15 W10       30.29F
BURLINGTON CO  CLOUDY    34   1  24 W8        30.30S
LIMON CO       CLOUDY    22  -5  30 N6        30.34R
$$

...UNOFFICIAL OBSERVATIONS...

CITY           SKY/WX    TMP DP  RH WIND       PRES   REMARKS
LENORA KS        N/A     51  32  48 W6          N/A
NORTON KS      CLEAR     39   3  22 SW7       30.20
SHARON SPRINGS   N/A     42   5  21 CALM        N/A
TRENTON NEB      N/A     50  32  50 NW6         N/A
KIT CARSON CO    N/A     43   4  19 CALM        N/A
YUMA CO        FAIR      32   1  27 W8        30.27F
$$




USA.gov is the U.S. government's official web portal to all federal, state and local government web resources and services.